Temp_Advection
nan nan nan nan nan nan nan nan nan nan nan nan nan nan nan nan nan nan nan nan nan nan nan nan nan nan nan nan nan nan nan nan nan nan nan nan nan nan nan nan nan nan nan nan nan nan nan nan nan
nan -0 0 0 0 -0 -0 -0 -0 -0 -0 -0 -0 -0 0 0 -0 -0 0 -0 0 0 -0 0 0 0 0 0 0 -0 -0 -0 0 -0 -0 -0 -0 -0 -0 0 0 0 -0 -0 -0 -0 -0 -0 nan
nan -0 0 0 0 -0 -0 0 -0 -1 -0 0 -0 -0 0 -0 0 0 0 0 0 0 -0 -0 0 1 0 0 -0 -0 -0 -0 -0 -0 -0 -0 0 0 0 -0 -0 -0 -0 -0 -0 -0 -0 -0 nan
nan 0 -0 -0 -0 -0 -0 -0 -0 -1 -1 0 0 0 -0 0 -0 1 0 1 0 0 0 -0 -0 0 0 0 0 -0 -0 -0 -0 -0 -0 0 0 0 0 0 -0 -0 -0 -0 -0 -0 0 0 nan
nan -0 -0 -0 0 -0 -0 0 0 -0 -1 -0 -0 -0 0 0 0 1 1 1 1 0 0 1 0 0 0 0 -0 0 -0 -0 -0 -0 0 0 0 0 0 0 0 0 -0 -0 0 0 0 -0 nan
nan -0 -0 0 -0 -0 -0 -0 0 -0 -1 -0 0 0 -0 0 0 1 1 1 1 0 0 0 1 0 0 -0 0 0 -0 -0 -0 0 0 0 0 0 0 0 -0 -0 -0 -0 0 0 -0 -0 nan
nan -0 -0 -0 -0 -0 -0 -0 0 0 -0 -1 -0 0 0 -0 0 0 1 1 1 1 0 0 0 0 0 0 0 -0 -0 -0 0 0 -0 0 -0 0 0 0 0 -0 -0 -0 0 0 -0 -0 nan
nan -0 0 0 -0 -0 -0 -1 -0 0 -0 -0 0 0 -0 -0 0 0 1 1 1 1 1 0 0 0 0 0 0 -0 -0 0 0 0 0 0 0 0 -0 -0 0 0 -0 -0 0 -0 -0 -0 nan
nan -0 -0 -0 -0 -0 -0 -0 -1 -0 -0 -1 -0 -0 -0 1 0 0 1 1 1 1 1 0 1 0 0 0 -0 -0 -0 0 0 0 0 0 0 0 0 -0 0 -0 -0 -0 0 -0 -0 -0 nan
nan 0 -0 -0 -0 -0 -0 -0 -1 -0 -1 -0 -0 0 1 0 -0 0 0 1 1 1 1 0 0 0 0 0 0 -0 0 0 0 0 0 0 0 0 0 0 0 0 -0 -0 -0 -0 -0 -0 nan
nan -0 -0 -1 -0 0 0 -0 -0 0 -0 -1 -0 0 0 -0 0 1 0 0 0 0 0 0 0 0 0 0 -0 -0 0 -0 -0 -0 0 0 -0 -0 -0 0 0 0 -0 -0 -0 -0 -0 -0 nan
nan -0 -0 -0 -0 0 -0 -0 0 -1 -1 -0 0 0 0 -0 -0 0 1 1 -0 0 -0 -0 -0 0 0 0 0 0 0 0 0 0 -0 0 0 0 -0 -0 -0 0 0 -0 -0 -0 -0 -0 nan
nan -0 -0 -0 -0 -0 0 0 -0 -1 -1 -0 -0 0 0 -1 0 1 0 0 0 -0 -1 -0 0 0 0 0 0 0 0 0 0 0 0 0 0 0 0 -0 -0 0 -0 0 0 -0 -0 -0 nan
nan -0 -1 -1 0 0 -0 -0 -0 -1 -0 0 -0 0 0 0 1 0 -1 -1 -1 -1 -0 -0 0 0 0 0 0 0 0 0 0 0 0 0 0 0 0 0 0 0 -0 -0 0 0 0 -0 nan
nan 0 -0 -0 -0 0 0 -0 -0 -1 -0 0 -0 -0 0 0 -0 -0 -0 -1 -0 -0 -0 -0 -0 0 0 0 0 0 0 0 0 0 0 0 0 0 0 0 0 -0 0 -0 -0 0 0 0 nan
nan -0 -0 -0 -0 -0 -0 0 -1 -0 -0 -0 -0 -0 0 0 0 1 0 0 1 -0 -1 0 -0 -0 -0 0 0 0 0 0 0 0 0 0 0 0 0 0 0 0 0 -0 -0 -0 0 0 nan
nan -0 -0 -1 -0 -0 -0 0 -1 -2 0 -1 -1 -0 0 1 1 -0 -0 0 0 -0 0 1 0 -0 -0 0 0 0 0 0 0 0 0 0 0 0 0 0 0 0 0 0 -0 -0 -0 0 nan
nan 0 0 -0 -0 -0 -0 -0 -1 -1 -1 -1 -1 -0 0 0 -1 -0 0 0 -0 -0 1 1 0 0 0 1 0 0 0 0 0 0 0 0 0 0 0 0 0 0 0 0 0 0 0 0 nan
nan 0 0 -0 -0 0 0 -0 -1 -0 -0 -1 -2 -0 0 -0 1 1 0 0 -0 0 1 0 0 0 0 0 -0 -0 -0 -0 0 0 0 0 0 0 0 0 0 0 0 0 0 0 0 -0 nan
nan 0 -0 -0 -0 0 0 -1 -1 -0 -0 -1 -1 -1 -0 1 1 0 0 -0 1 1 1 -1 1 0 0 -0 -0 -0 0 0 0 0 -0 0 0 0 0 0 0 0 0 0 0 0 -0 -0 nan
nan 0 -0 -0 -0 0 0 -0 -0 -0 -0 -1 -1 -1 -0 1 0 0 -0 1 0 0 -2 0 1 1 0 0 1 0 0 -0 -0 -1 -0 -0 0 0 0 0 0 0 0 0 0 0 0 0 nan
nan -0 -0 0 -0 -0 0 0 -0 -0 -0 -0 -1 -1 -0 1 0 -0 -0 -1 -1 -1 -1 3 2 -0 -0 1 -0 -1 -0 -1 -1 -0 0 0 0 0 0 0 0 0 0 0 0 0 0 0 nan
nan -0 0 0 0 0 0 -0 -0 -0 -0 -0 -0 -1 -0 0 -0 -0 -0 -2 0 -0 1 0 -0 -0 -0 -1 -0 0 -0 -0 0 0 1 1 0 0 0 0 0 0 0 0 0 0 0 0 nan
nan -0 -0 -0 -0 -0 0 -0 -0 -0 -0 -0 -0 -0 -0 0 0 0 -1 1 1 0 -0 -0 1 -0 -0 -0 1 -0 -0 1 0 0 0 0 -0 0 0 0 0 0 0 0 0 0 0 0 nan
nan 0 0 0 0 1 0 -0 -1 -0 0 -0 -1 -2 -0 -0 0 1 1 1 1 1 0 1 1 0 -0 -0 -0 -1 0 -0 -1 -0 -0 0 -0 -0 -0 0 0 0 0 0 0 0 0 0 nan
nan 0 -0 -0 0 -0 -0 -0 -0 -0 -0 -0 -0 -1 -0 0 0 -0 0 0 -0 0 -1 0 1 1 -1 -1 -1 -0 -1 -1 -1 -0 0 -0 -0 -0 0 0 1 0 0 0 0 0 0 0 nan
nan 0 -0 -0 -0 -0 -0 -0 -1 -0 0 -0 -1 -0 -0 0 0 -0 -0 -0 0 -0 -1 -1 -0 -1 -2 -1 -1 -1 -0 -1 0 1 0 -0 -0 1 1 1 1 0 -0 0 0 0 0 0 nan
nan 0 -0 -0 -0 0 0 -0 -0 -0 -0 0 -0 -0 0 0 0 0 0 -0 -0 -1 -1 0 0 -0 -0 -0 0 0 0 -1 1 0 0 0 1 1 1 0 0 0 -0 0 0 0 0 0 nan
nan -0 0 -0 0 0 -0 -0 -0 -0 0 0 -0 -0 0 -0 0 0 0 0 0 1 1 -0 -0 1 -0 0 1 0 -2 -1 1 1 0 0 0 1 1 0 0 -0 0 0 0 0 0 0 nan
nan nan nan nan nan nan nan nan nan nan nan nan nan nan nan nan nan nan nan nan nan nan nan nan nan nan nan nan nan nan nan nan nan nan nan nan nan nan nan nan nan nan nan nan nan nan nan nan nan
Wind_Speed
9 9 4 4 1 1 9 5 3 5 1 3 4 7 11 8 7 5 6 26 38 39 36 31 28 25 24 22 22 19 18 16 11 7 5 5 5 4 5 4 4 3 1 0 1 1 2 2 2
9 6 3 3 2 5 6 3 8 8 5 11 4 3 4 8 8 3 15 27 42 40 37 33 28 25 24 24 21 20 17 13 10 6 5 5 4 4 4 3 2 1 1 1 2 2 2 3 3
6 1 4 3 3 10 6 5 7 12 21 9 9 4 3 3 11 5 14 31 42 40 36 33 29 26 25 23 22 20 14 13 9 7 6 5 5 4 4 3 2 2 2 2 2 3 3 3 4
2 4 2 2 10 4 4 7 10 12 9 10 9 6 5 6 4 15 26 35 41 40 36 33 30 26 25 23 22 17 14 11 9 7 6 5 5 4 4 4 3 2 2 3 3 3 4 5 6
2 2 1 4 8 5 6 15 14 9 11 11 8 4 5 3 7 18 32 40 38 39 35 33 29 28 26 24 20 15 12 10 9 7 6 5 5 5 5 4 3 3 3 4 4 5 4 6 7
2 2 1 3 5 7 6 9 10 4 15 17 4 4 4 6 8 21 35 39 36 39 36 31 29 29 27 23 18 15 12 10 9 8 7 6 6 5 5 5 5 5 5 5 5 5 6 7 7
3 3 3 4 7 4 5 12 2 5 9 12 9 2 6 9 11 25 34 36 35 36 36 33 32 29 26 22 18 14 12 10 9 8 7 7 6 6 6 5 5 5 6 5 6 6 7 8 9
2 3 2 3 4 5 6 8 10 10 7 14 9 6 6 10 16 26 32 34 35 35 35 34 32 30 27 23 18 15 12 11 9 8 8 8 7 6 6 6 6 6 6 5 5 6 8 9 10
2 1 3 4 5 5 15 5 9 20 11 17 14 13 19 10 18 28 32 35 36 35 37 34 32 29 26 23 18 15 13 12 10 9 9 8 7 7 6 6 5 6 6 6 6 7 9 9 10
4 3 6 6 4 6 10 9 21 9 17 7 10 11 12 17 18 31 36 39 39 36 33 34 31 29 26 22 19 17 14 12 11 10 9 8 8 7 6 6 5 5 5 6 7 9 10 10 10
3 5 5 11 17 18 12 9 13 8 6 13 12 23 14 22 14 32 38 41 38 35 34 34 32 28 25 22 20 17 15 13 12 11 9 8 7 7 6 6 5 5 6 7 8 8 9 9 10
3 9 11 9 15 11 5 10 6 16 16 20 22 13 19 24 22 30 36 37 38 38 36 35 32 29 26 22 20 18 16 14 12 11 10 9 8 7 6 6 6 6 7 7 7 8 9 9 10
5 4 8 15 19 22 25 18 12 12 23 23 16 14 22 25 25 33 38 35 37 39 37 35 32 29 26 23 20 19 17 14 13 12 11 10 8 7 6 6 6 6 6 7 7 8 9 9 9
3 11 16 19 25 13 8 11 7 8 12 19 17 18 17 25 33 38 35 41 38 39 36 34 31 29 26 22 20 19 18 16 14 13 12 11 10 8 6 6 6 6 7 7 8 8 8 8 9
9 6 7 6 5 4 2 6 5 19 21 26 24 19 15 21 29 40 39 36 37 38 37 35 32 29 26 23 21 20 18 16 15 13 13 11 10 8 7 5 5 6 7 7 8 8 8 7 8
3 1 4 3 6 1 2 6 9 14 13 21 16 12 14 21 26 34 37 37 39 36 35 35 33 31 27 25 22 20 19 17 16 14 13 12 11 9 7 6 5 6 7 8 8 9 8 8 7
4 4 3 7 5 4 4 8 10 27 16 17 13 10 13 20 21 25 32 38 37 34 31 35 34 32 29 26 24 21 20 19 17 16 15 13 12 11 8 7 6 6 7 8 9 9 8 8 8
3 3 5 6 4 5 11 14 11 22 19 20 21 19 15 21 28 28 33 29 29 31 34 34 35 33 31 29 26 24 23 21 20 18 16 15 13 12 10 8 7 7 7 8 9 8 9 10 9
2 4 9 6 8 5 7 13 16 21 15 19 26 20 17 21 27 31 30 31 24 28 35 37 34 33 34 33 31 29 27 24 22 20 18 16 15 13 11 10 8 8 8 8 9 10 10 11 11
5 6 8 8 4 4 10 19 19 18 13 21 28 25 20 21 22 27 37 38 36 28 31 33 33 37 36 35 33 30 27 25 22 21 20 18 16 14 12 11 10 9 9 10 10 10 11 11 13
4 5 5 8 6 5 7 9 6 6 9 20 22 27 25 24 26 26 32 36 33 34 36 31 26 40 39 33 36 32 29 27 26 25 24 21 18 15 14 13 12 11 11 11 10 11 11 11 13
4 6 7 6 4 3 5 8 6 8 9 6 13 20 27 26 28 32 36 41 38 35 21 31 28 40 40 38 38 36 31 31 28 26 23 23 20 17 16 15 14 13 13 12 11 11 12 12 12
7 3 3 2 3 5 1 0 7 4 8 7 7 19 23 27 31 35 40 39 42 42 31 37 25 37 47 43 38 38 37 32 29 28 28 26 23 20 19 18 17 16 14 14 13 13 12 12 13
3 1 4 3 1 4 2 3 6 4 5 5 3 4 7 22 30 35 40 40 43 43 43 32 31 41 50 45 43 41 38 35 32 31 31 29 25 22 21 20 19 18 17 16 14 14 14 13 13
3 2 4 3 2 6 1 0 10 9 8 6 9 24 17 10 23 34 36 41 48 42 40 43 43 46 46 50 49 45 41 39 35 33 32 30 29 25 21 20 21 20 18 17 16 16 15 14 14
6 5 5 5 3 4 4 6 6 6 8 10 14 18 16 11 12 25 34 33 36 39 42 45 48 48 46 50 48 44 38 38 35 36 37 34 29 28 21 20 21 20 20 19 18 17 16 16 15
5 6 4 2 1 2 3 7 9 5 4 5 12 11 8 8 10 15 25 33 36 37 39 43 53 51 48 47 50 50 46 45 44 43 39 37 32 31 26 22 22 22 21 20 19 19 18 17 16
5 6 4 1 4 5 4 5 6 4 3 4 8 9 11 13 14 10 15 26 33 36 36 36 40 50 53 45 46 48 51 45 50 46 43 40 35 31 30 27 25 24 22 21 21 20 20 19 18
5 4 2 4 4 4 2 5 6 7 4 6 6 5 6 13 18 21 11 14 25 32 34 38 40 44 51 51 43 43 50 51 50 53 48 44 38 33 31 30 28 25 23 22 22 22 21 20 19
4 8 7 5 6 3 3 7 4 8 6 6 3 4 10 15 26 21 13 7 13 23 32 36 38 39 41 46 58 54 53 58 54 52 48 44 39 36 34 35 31 27 24 23 23 23 22 22 21
Wind_Direction
318 305 312 193 101 264 237 248 303 310 186 271 180 169 195 185 168 209 185 176 178 173 170 168 170 169 167 163 158 158 165 167 170 180 189 190 191 194 189 185 184 184 184 130 29 25 5 4 349
312 321 158 124 131 245 250 263 274 266 289 343 275 248 201 227 197 219 161 168 173 171 170 168 172 169 165 161 160 166 170 177 184 199 201 196 194 186 178 172 168 146 63 27 30 34 31 23 18
310 223 142 140 197 226 231 216 229 251 265 298 314 293 226 278 207 200 172 166 172 170 169 168 169 168 165 162 168 172 177 181 194 202 202 198 184 175 164 162 149 122 83 58 47 45 47 48 49
77 117 100 146 240 300 305 300 343 322 333 242 254 275 274 252 239 177 168 167 172 173 172 169 170 168 168 170 175 178 183 188 197 197 196 187 174 166 156 146 138 124 110 97 83 75 74 70 71
80 98 46 248 267 278 306 304 330 306 293 289 317 276 262 252 200 176 168 167 174 173 172 171 170 174 172 177 179 183 186 190 191 190 187 177 168 159 152 142 134 119 110 101 93 88 81 79 84
66 92 165 269 280 279 274 294 303 293 302 275 250 264 243 206 188 172 168 170 175 173 172 170 172 173 178 180 183 182 188 189 188 181 179 169 160 155 148 140 131 123 116 105 95 91 81 83 84
123 88 239 231 270 285 256 333 298 309 298 295 232 200 298 201 187 178 174 174 174 175 172 172 177 177 181 182 182 184 188 186 183 177 172 165 158 151 142 131 122 114 112 110 110 107 94 93 97
178 116 239 244 221 262 262 313 317 326 304 318 249 207 264 227 182 189 178 175 174 174 173 177 180 182 181 180 183 185 185 183 180 173 168 162 155 149 141 134 125 116 109 109 110 107 107 103 102
175 57 239 243 220 242 259 332 304 312 282 310 272 266 225 274 185 184 178 177 177 177 180 181 179 179 180 180 183 184 183 180 176 173 166 160 154 147 138 130 121 114 110 118 124 117 111 101 104
161 184 234 212 240 276 281 289 305 293 300 303 297 277 210 232 190 189 184 181 177 180 180 183 182 182 182 183 184 183 183 178 177 173 170 164 156 149 141 132 123 114 112 118 119 118 111 106 106
196 218 233 262 261 266 271 282 293 263 279 262 287 301 230 213 217 196 190 188 180 182 183 186 186 185 185 187 186 184 183 182 179 174 173 169 160 152 148 138 130 123 118 119 116 118 118 115 107
271 247 247 270 272 273 248 272 253 260 263 281 299 288 249 208 189 211 193 186 187 185 187 188 188 186 187 191 189 187 185 184 182 179 175 173 168 159 156 147 141 136 133 128 127 127 127 123 114
216 262 280 278 277 276 270 258 244 254 279 290 284 311 230 220 192 217 211 186 188 188 190 190 189 189 190 193 192 189 188 187 185 182 180 178 173 168 162 156 153 145 139 136 135 135 131 127 120
283 285 284 288 282 263 242 255 226 257 271 279 280 303 242 221 206 202 200 189 195 191 189 194 192 191 193 195 197 194 190 191 189 185 183 183 177 175 172 169 158 153 150 148 146 143 139 136 126
277 297 309 271 279 286 304 296 234 264 255 268 269 276 257 226 209 213 204 207 205 201 193 195 195 194 196 197 201 200 196 195 194 190 187 187 183 182 182 175 165 162 158 157 158 158 153 150 137
308 30 338 290 324 324 67 280 291 315 302 271 277 256 251 231 226 212 211 206 202 201 199 196 198 197 198 200 203 204 201 199 197 194 192 191 190 190 189 184 179 174 170 167 168 167 166 160 147
359 273 278 311 302 353 48 288 276 299 303 289 266 288 256 239 228 219 210 212 218 207 206 196 200 199 203 203 205 206 205 201 200 199 197 197 195 195 194 198 192 184 180 175 175 175 174 173 167
249 286 265 261 281 328 301 277 277 283 291 281 277 276 263 234 228 213 212 213 218 225 214 203 202 199 205 204 205 207 206 203 203 203 202 201 201 200 204 204 201 197 193 186 184 179 182 181 179
261 260 257 255 265 282 255 275 279 278 266 266 269 261 250 232 231 222 208 201 211 218 224 209 204 201 206 205 205 207 207 205 206 205 206 206 205 207 209 212 212 209 202 197 193 190 188 189 185
250 269 276 287 269 258 287 285 278 263 248 234 247 248 238 230 218 224 211 214 227 213 219 206 209 206 208 211 209 209 209 210 211 209 210 210 210 212 214 219 219 218 215 208 203 199 196 194 193
234 229 262 264 317 253 303 282 280 282 245 250 246 245 237 228 212 208 204 205 206 203 208 226 232 211 209 214 210 210 208 213 212 211 213 213 212 214 220 224 225 225 223 218 212 209 206 207 205
269 224 255 285 341 295 47 297 290 272 281 269 253 232 233 227 220 211 207 212 208 196 202 205 265 221 214 214 213 209 211 214 216 215 214 215 216 217 223 227 229 230 230 227 222 217 216 216 219
227 181 245 289 279 315 329 27 272 319 299 280 248 235 237 234 222 219 216 216 217 213 213 205 251 234 217 216 217 210 214 218 220 217 221 220 219 218 226 229 231 233 234 230 228 227 224 223 224
139 136 38 22 174 266 267 161 283 241 223 306 293 241 260 241 228 226 221 216 208 210 215 226 207 215 219 221 218 216 218 218 220 223 227 223 223 223 228 233 234 235 235 235 233 230 229 226 224
131 168 327 355 216 235 217 206 252 272 260 230 276 290 300 274 233 226 225 220 218 222 214 215 210 221 222 223 220 218 217 219 219 227 231 230 222 222 228 237 240 239 238 237 236 235 233 234 231
166 175 169 232 211 274 168 238 250 214 255 278 296 282 278 294 266 229 226 227 225 224 221 218 220 224 229 228 222 224 226 224 222 223 230 233 231 229 231 239 238 235 235 236 236 236 236 234 233
185 195 161 130 222 292 247 288 290 281 262 238 326 355 0 353 322 246 232 226 230 230 227 227 226 225 221 222 229 223 222 227 221 220 223 230 231 229 231 231 233 234 234 235 237 237 237 237 234
165 165 124 96 209 243 278 274 240 289 112 319 338 352 17 37 28 352 244 234 229 232 235 233 233 229 228 231 226 220 220 233 230 226 222 228 232 228 231 228 229 233 233 234 235 236 235 235 236
167 187 160 130 168 188 271 261 215 238 237 205 270 284 355 9 6 358 340 246 237 236 234 239 237 235 229 228 227 226 223 229 233 230 226 224 230 229 226 229 229 234 235 235 236 236 236 235 235
203 180 159 152 213 215 155 271 274 240 256 267 245 266 312 328 329 337 328 314 251 237 232 232 237 240 238 234 231 230 232 231 233 235 233 231 230 228 227 229 226 232 233 234 236 236 237 237 236
Height
1505 1505 1507 1509 1518 1513 1502 1499 1492 1491 1487 1485 1484 1483 1482 1479 1486 1497 1478 1480 1487 1492 1498 1505 1510 1514 1517 1521 1524 1528 1531 1532 1534 1535 1535 1536 1537 1537 1537 1537 1537 1537 1537 1537 1537 1537 1537 1536 1536
1504 1504 1507 1509 1518 1517 1507 1498 1497 1492 1488 1484 1484 1481 1481 1479 1477 1477 1477 1481 1488 1492 1498 1503 1509 1514 1517 1521 1524 1527 1530 1532 1533 1535 1535 1536 1536 1537 1537 1537 1537 1537 1537 1537 1537 1537 1536 1536 1536
1504 1503 1507 1511 1515 1513 1505 1492 1489 1486 1484 1486 1486 1483 1480 1479 1475 1475 1476 1480 1487 1492 1497 1502 1508 1513 1517 1521 1524 1527 1529 1531 1533 1534 1535 1535 1536 1536 1537 1537 1537 1537 1537 1537 1537 1537 1536 1536 1537
1504 1505 1509 1513 1508 1507 1503 1497 1495 1491 1482 1482 1484 1484 1481 1477 1477 1475 1477 1480 1486 1491 1497 1502 1507 1513 1517 1521 1523 1526 1529 1531 1532 1534 1534 1535 1536 1536 1537 1537 1538 1538 1538 1538 1538 1538 1537 1537 1538
1506 1505 1512 1511 1509 1506 1499 1496 1493 1492 1490 1484 1482 1479 1480 1476 1476 1475 1477 1481 1486 1492 1498 1503 1507 1512 1516 1520 1524 1526 1529 1531 1532 1533 1534 1535 1535 1536 1537 1537 1538 1538 1539 1539 1539 1539 1539 1539 1539
1506 1506 1512 1516 1510 1504 1499 1495 1492 1489 1487 1481 1481 1481 1478 1475 1476 1476 1478 1482 1488 1492 1497 1503 1507 1511 1515 1520 1523 1526 1529 1530 1531 1532 1534 1534 1535 1536 1537 1537 1538 1538 1539 1539 1539 1539 1540 1540 1540
1506 1510 1511 1508 1508 1503 1495 1491 1490 1487 1484 1482 1478 1479 1477 1476 1476 1478 1479 1484 1488 1493 1497 1502 1506 1510 1515 1519 1523 1525 1528 1529 1531 1533 1534 1535 1536 1536 1537 1537 1538 1538 1539 1540 1540 1540 1541 1541 1542
1505 1507 1508 1507 1507 1502 1492 1489 1487 1487 1481 1481 1479 1473 1472 1474 1476 1479 1481 1485 1490 1493 1497 1500 1505 1509 1514 1517 1521 1524 1527 1529 1531 1532 1534 1535 1536 1537 1538 1538 1539 1539 1540 1540 1541 1542 1542 1543 1543
1504 1510 1511 1505 1502 1496 1490 1490 1485 1485 1482 1479 1477 1473 1467 1474 1477 1480 1482 1485 1490 1493 1496 1499 1504 1509 1514 1517 1520 1524 1527 1529 1530 1532 1534 1535 1536 1538 1538 1539 1540 1540 1541 1541 1542 1543 1543 1544 1545
1503 1509 1503 1496 1494 1492 1489 1489 1485 1484 1478 1474 1473 1473 1468 1476 1476 1480 1481 1482 1485 1489 1494 1499 1504 1508 1512 1516 1519 1522 1526 1528 1530 1532 1534 1535 1536 1538 1539 1540 1540 1541 1542 1543 1543 1544 1545 1545 1546
1499 1501 1496 1492 1490 1489 1486 1484 1483 1480 1476 1471 1472 1468 1469 1470 1474 1476 1481 1483 1484 1488 1493 1498 1503 1507 1512 1516 1519 1522 1525 1527 1529 1531 1533 1535 1537 1538 1539 1540 1541 1542 1543 1544 1545 1546 1546 1547 1548
1498 1492 1492 1488 1487 1486 1482 1480 1478 1478 1472 1469 1469 1465 1463 1469 1464 1477 1467 1481 1483 1488 1491 1496 1502 1506 1511 1516 1519 1521 1524 1527 1529 1531 1533 1535 1537 1538 1540 1540 1542 1543 1544 1545 1546 1547 1548 1549 1549
1494 1490 1488 1486 1483 1481 1479 1476 1474 1472 1469 1467 1465 1464 1460 1462 1465 1471 1469 1481 1482 1486 1490 1495 1500 1505 1510 1515 1518 1521 1524 1527 1529 1531 1533 1535 1536 1538 1540 1541 1542 1543 1544 1545 1546 1547 1549 1550 1550
1491 1488 1485 1480 1475 1475 1474 1468 1470 1465 1464 1463 1463 1461 1459 1458 1461 1464 1469 1464 1479 1484 1487 1494 1499 1504 1509 1513 1518 1521 1523 1526 1528 1531 1533 1535 1536 1538 1540 1541 1542 1543 1544 1545 1546 1548 1549 1551 1552
1489 1489 1482 1476 1474 1472 1469 1469 1466 1459 1459 1458 1459 1459 1457 1456 1459 1463 1466 1466 1475 1479 1484 1490 1497 1502 1507 1512 1517 1520 1522 1525 1528 1530 1532 1535 1536 1538 1540 1541 1542 1543 1544 1545 1546 1548 1549 1551 1552
1489 1489 1489 1476 1474 1470 1470 1474 1462 1459 1456 1454 1455 1456 1454 1454 1456 1461 1464 1466 1469 1476 1481 1488 1493 1499 1505 1510 1515 1519 1521 1524 1527 1529 1531 1534 1535 1537 1539 1540 1541 1542 1543 1544 1546 1547 1549 1551 1553
1494 1495 1489 1482 1474 1473 1472 1470 1459 1456 1456 1453 1452 1451 1453 1453 1454 1456 1461 1463 1469 1472 1479 1484 1489 1496 1503 1508 1513 1517 1520 1522 1525 1528 1530 1532 1534 1536 1538 1540 1541 1542 1543 1544 1545 1546 1549 1550 1552
1492 1492 1489 1487 1476 1473 1472 1466 1456 1452 1453 1449 1447 1447 1448 1448 1448 1451 1457 1462 1465 1471 1477 1482 1487 1492 1500 1506 1510 1514 1517 1520 1523 1526 1528 1530 1532 1534 1537 1539 1540 1541 1542 1543 1544 1546 1548 1550 1552
1489 1492 1490 1482 1474 1476 1470 1462 1453 1446 1445 1444 1441 1442 1443 1443 1445 1449 1453 1457 1461 1469 1474 1479 1484 1489 1495 1502 1506 1510 1512 1516 1520 1523 1526 1528 1530 1533 1535 1537 1539 1541 1542 1542 1543 1545 1547 1548 1550
1489 1489 1485 1477 1471 1472 1466 1453 1444 1437 1433 1431 1433 1435 1437 1440 1443 1446 1450 1455 1458 1462 1469 1471 1477 1486 1491 1498 1502 1505 1511 1514 1518 1521 1524 1526 1528 1530 1533 1536 1538 1539 1540 1541 1542 1543 1545 1547 1549
1485 1486 1483 1480 1473 1468 1467 1453 1440 1428 1425 1425 1426 1428 1432 1432 1437 1441 1445 1447 1451 1452 1458 1463 1472 1483 1488 1493 1497 1501 1506 1510 1513 1517 1520 1523 1525 1527 1530 1533 1535 1538 1539 1540 1540 1542 1543 1545 1547
1485 1476 1477 1477 1478 1484 1469 1459 1444 1429 1425 1422 1421 1423 1425 1428 1431 1435 1438 1441 1446 1451 1449 1457 1472 1478 1484 1486 1490 1494 1499 1503 1508 1514 1517 1520 1522 1524 1527 1530 1533 1535 1537 1538 1539 1539 1541 1543 1544
1478 1473 1474 1474 1480 1476 1472 1485 1444 1433 1426 1418 1416 1418 1420 1423 1425 1426 1431 1433 1438 1443 1444 1453 1464 1469 1478 1479 1483 1488 1493 1499 1505 1509 1512 1516 1517 1520 1523 1527 1529 1532 1534 1535 1537 1538 1538 1540 1542
1470 1472 1478 1481 1478 1476 1468 1477 1451 1435 1423 1417 1413 1414 1417 1417 1420 1423 1426 1430 1432 1437 1444 1448 1451 1458 1468 1472 1477 1482 1487 1493 1498 1503 1507 1511 1513 1516 1519 1523 1525 1528 1530 1532 1534 1535 1536 1537 1538
1471 1474 1501 1496 1477 1480 1487 1481 1442 1423 1417 1418 1415 1410 1413 1412 1413 1417 1421 1425 1429 1432 1437 1442 1448 1451 1456 1463 1471 1476 1482 1485 1490 1497 1502 1505 1507 1510 1514 1518 1521 1523 1526 1528 1530 1532 1533 1535 1536
1472 1472 1493 1485 1505 1481 1470 1462 1433 1417 1413 1412 1412 1406 1408 1411 1412 1413 1416 1421 1424 1427 1431 1437 1442 1447 1450 1460 1466 1471 1475 1477 1481 1487 1495 1499 1502 1505 1509 1513 1517 1518 1521 1523 1525 1527 1529 1531 1533
1471 1465 1465 1474 1482 1480 1465 1449 1425 1412 1408 1411 1410 1405 1406 1409 1409 1410 1413 1416 1419 1423 1427 1431 1436 1442 1447 1453 1458 1463 1467 1468 1472 1478 1485 1491 1495 1499 1503 1507 1512 1514 1515 1518 1521 1522 1524 1527 1528
1456 1458 1468 1478 1478 1476 1464 1459 1440 1416 1410 1410 1410 1407 1406 1407 1408 1408 1409 1412 1416 1419 1423 1426 1430 1434 1439 1445 1448 1454 1457 1463 1468 1471 1475 1483 1487 1491 1497 1502 1506 1508 1510 1513 1515 1518 1519 1521 1524
1453 1457 1457 1462 1468 1468 1467 1450 1421 1416 1413 1411 1410 1407 1406 1405 1406 1408 1407 1408 1411 1415 1418 1421 1424 1429 1432 1437 1441 1445 1450 1454 1459 1462 1466 1472 1480 1484 1489 1496 1501 1502 1504 1507 1509 1513 1514 1516 1519
1438 1439 1446 1456 1459 1461 1470 1448 1411 1411 1411 1411 1407 1407 1406 1405 1404 1404 1404 1405 1406 1408 1412 1414 1416 1419 1422 1427 1434 1438 1444 1446 1450 1455 1459 1465 1472 1477 1482 1488 1492 1495 1498 1500 1504 1507 1510 1513 1513